Regional Weather Roundup
Issued by NWS

Home | Current Version | Previous Version | Text Only | Print | Product List | Glossary Off
Versions: 1 2 3 4 5 6 7 8 9 10 11 12 13 14 15 16 17 18 19 20 21 22 23 24 25 26 27 28 29 30 31 32 33 34 35 36 37 38 39 40 41 42 43 44 45 46 47 48 49 50

000
ASUS43 KOAX 250502
RWRNE

WEATHER ROUNDUP FOR NEBRASKA
NATIONAL WEATHER SERVICE OMAHA NE
1200 AM CDT TUE JUL 25 2017

NOTES: SATELLITE DATA IS BEING USED TO AUGMENT CLOUD COVER ABOVE
       12000 FEET.
       "FAIR" INDICATES FEW OR NO CLOUDS BELOW 12,000 FEET WITH NO
       SIGNIFICANT WEATHER AND/OR OBSTRUCTIONS TO VISIBILITY.


NEZ001>004-019>022-054>056-250600-
NEBRASKA PANHANDLE

CITY           SKY/WX    TMP DP  RH WIND       PRES   REMARKS
SCOTTSBLUFF    CLEAR     75  55  49 E6        29.95R
ALLIANCE       CLEAR     79  53  40 S18G25    29.94R
CHADRON        CLEAR     78  52  40 CALM      29.87S
GORDON         FAIR      68  58  69 CALM      29.93R
KIMBALL        CLOUDY    75  53  46 S15G22    30.04S
SIDNEY         PTCLDY    78  56  46 S20G29    30.02R
$$

NEZ057>060-069>072-079>082-250600-
SOUTHWEST NEBRASKA

CITY           SKY/WX    TMP DP  RH WIND       PRES   REMARKS
NORTH PLATTE   CLEAR     83  55  38 S7        29.95R
IMPERIAL       MOCLDY    83  58  42 S15G24    29.98F
LEXINGTON      CLOUDY    77  59  53 S9        29.97R
MCCOOK         CLOUDY    84  55  36 S17G24    29.95F
OGALLALA       CLOUDY    82  58  43 S12G18    29.94S
$$

NEZ005>010-023>029-035>040-094-250600-
NORTH CENTRAL NEBRASKA

CITY           SKY/WX    TMP DP  RH WIND       PRES   REMARKS
VALENTINE      CLEAR     83  62  49 SE15      29.91R
AINSWORTH      CLEAR     80  69  69 SE22      29.93S
BROKEN BOW     CLOUDY    79  67  66 S14       29.95S
O`NEILL        LGT RAIN  77  71  80 E10       30.00S
ORD            PTCLDY    79  68  69 SE10      29.94R
THEDFORD       CLEAR     82  54  38 S10       29.95R
$$

NEZ041-046>049-061>064-073>077-083>087-250600-
SOUTH CENTRAL NEBRASKA

CITY           SKY/WX    TMP DP  RH WIND       PRES   REMARKS
GRAND ISLAND   CLEAR     77  72  84 SE13      29.98R
AURORA         CLEAR     74  72  91 SE9       29.98S
HASTINGS       CLEAR     79  70  74 S10       29.99R
HEBRON         CLEAR     79  73  82 SE9       29.99S
HOLDREGE       PTCLDY    72  62  71 S9        29.98S
KEARNEY        PTCLDY    78  69  73 S15       29.98R
YORK           CLEAR     75  70  83 SE9       29.99R
$$

NEZ011>018-030>034-042>045-250600-
NORTHEAST NEBRASKA

CITY           SKY/WX    TMP DP  RH WIND       PRES   REMARKS
NORFOLK        CLOUDY    76  65  68 SE14      29.96R
ALBION         CLOUDY    76  70  81 SE6       29.97S
BLAIR          CLEAR     76  66  72 SE9       29.99R
COLUMBUS       CLOUDY    76  67  73 SE8       29.98R
FREMONT        CLOUDY    76  65  69 SE14      29.99R
TEKAMAH        PTCLDY    73  66  78 SE8       29.98R
WAYNE          CLOUDY    75  72  91 S12       29.95F
$$

NEZ050>053-065>068-078-088>093-250600-
SOUTHEAST NEBRASKA

CITY           SKY/WX    TMP DP  RH WIND       PRES   REMARKS
LINCOLN        PTCLDY    78  66  66 S14       29.99R
OMAHA EPPLEY   CLEAR     77  65  66 SE10      29.99S
BEATRICE       CLEAR     78  69  73 SE8       30.00R
FALLS CITY     CLEAR     71  68  90 SE5       30.01R
NEBRASKA CITY  CLEAR     73  70  88 SE8       30.01R
PLATTSMOUTH    CLEAR     74  66  75 SE12      30.00S
$$

NEZ044-045-051>053-067-250600-
OMAHA AREA

CITY           SKY/WX    TMP DP  RH WIND       PRES   REMARKS
OMAHA EPPLEY   CLEAR     77  65  66 SE10      29.99S
BLAIR          CLEAR     76  66  72 SE9       29.99R
FREMONT        CLOUDY    76  65  69 SE14      29.99R
MILLARD        PTCLDY    76  69  78 SE7       29.99R
OFFUTT AFB     CLEAR     74  66  76 SE9       29.99S
PLATTSMOUTH    CLEAR     74  66  75 SE12      30.00S
WAHOO          FAIR      72  67  82 SE7       29.99R
$$




USA.gov is the U.S. government's official web portal to all federal, state and local government web resources and services.